OBJECT G, 69544

Orbit data source: Space-Track

You're viewing an Uncataloged Satellite

Recently launched and/or uncataloged satellites may have evolving metadata. Metadata may include but not limited to: Owner, Maufacturer, Bus, Motor, and Mission.

OBJECT G, 69544 is a Chinese satellite in SSO that was launched on Mon, 15 Jun 2026 UTC via a LIJIAN-1 launch vehicle from the Jiuquan Satellite Launch Center, China (JSC). Unknown objects in Earth's orbit typically refer to objects detected orbiting the Earth but have not yet been identified or cataloged. These objects could be anything from previously untracked satellites, spent rocket stages, debris from satellite collisions, or even natural meteoroids temporarily captured by Earth's gravity.

Loading next visibility...
Identifier
69544, 2026-134G
Orbit
SSO
Country
Flag of CNCN / PRC
Related business
None
Manufacturer
Unknown
Mission
Operational spacecraft
Bus & Motor
Unknown
Mass
Unknown
Launch date (UTC)
2026-06-15 (1 day ago)
Launch vehicle
LIJIAN-1
Launch site
Jiuquan Satellite Launch Center, China (JSC)
Object type
Unknown
Shape & HBR
Unknown
Radar Cross Section
RCS unknown

Expand to show TLE details & history
Last TLE update: 1 day ago

TLE from 1 day ago
0 OBJECT G
1 69544U 26134G   26166.46456304  .00001402  00000-0  91199-4 0  9997
2 69544  97.7020 236.5610 0014434 281.7021  78.2587 15.09594108    48
Epoch: 2026-06-15T11:08Z
TLE epoch observation values (Epoch: 2026-06-15T11:08:58.246Z)
Latitude
-0.00012°
Longitude
165.56775°
Altitude
538.489 km
Speed
7.594 km/s
True Right ascension
15h 46m 14s
True Declination
0° 00' 00"
Sunlit
Object was in full shadow at epoch
Visualization orbit readout
Latitude
Unknown
Longitude
Unknown
Altitude
Unknown
Speed
Unknown
Apparent Right ascension
Unknown
Apparent Declination
Unknown
Sunlit
N/A
Visualization observer readout
Local Sidereal Time
04:58:51
Azimuth
Unknown
Elevation
Unknown
Doppler factor
Unknown
Orbital elements
Apogee altitude
544.41 km
Perigee altitude
524.454 km
Semi-major axis
6,912.569 km
Eccentricity
0.00144
Inclination
97.702°
RAAN
236.561°
Arg. of periapsis
281.7021°
True anomaly
78.4207°
Mean anomaly
78.2587°
Eccentric anomaly
78.33969°
Mean motion
3.77645 °/min
Orbital period
95.33 mins
BSTAR
0.000091199
Loading maneuver chart data...
Computing Atmospheric mass density...
Loading historical data...
Loading historical data...
Loading historical data...
Loading historical data...
Loading historical data...
Loading historical data...
Loading historical data...

Documentation

Showing up to 5 results
|